星链-32541 (STARLINK-32541)

导读 | 豆包AI

STARLINK-32541是美国SpaceX星链星座的卫星,于2024年11月11日发射升空,属于第二代星链网络组网卫星,旨在为全球提供低延迟、高速率的卫星互联网服务,弥补地面通信覆盖盲区。该卫星入轨后逐步完成姿态调整与测试,融入已有星链星座运行,进一步拓展星链的全球服务覆盖范围与容量。

Basic Information
目录编号:
61916
目录名称:
STARLINK-32541
国际标识:
2024-207E
轨道中心:
EARTH
卫星名称:
星链-32541
卫星全名:
星链-32541 (STARLINK-32541)
卫星状态:
在轨 (已飞行489 天)
发射日期:
2024-11-11 UTC
国别 :
美国 (US)
星等 :
--
Orbit Information
数据来源 国际轨道数据 AOE轨道数据
星历时间 2026-03-14T21:24:42+0800
21小时前
查看轨道信息
2026-03-13T01:00:00+0800
2天前
查看轨道信息
半长轴 6861.136km 6861.22km
偏心率 0.0001554 0.0001927
轨道倾角 43.000° 43.001°
近地点辐角 265.269° 265.548°
升交点赤经 257.970° 268.427°
平近点角 94.798° 346.178°
近地点 481.932km 481.76km
远地点 484.066km 484.406km
周期 94.266分钟 94.267分钟
每日圈数 15.275968 15.275689
Detailed Information
固有亮度:
5
最大亮度:
2.5
卫星平台:
Starlink V1.0
覆盖范围:
全球
运营商:
太空探索技术公司
运营商所在国:
美国
制造商(研发单位):
太空探索技术公司
制造商所在国:
美国
使用方式:
暂无
Satellite Introduction
Starlink 计划是 SpaceX 推出的全球卫星互联网项目,通过发射低轨道卫星,为全球尤其是偏远地区提供高速、低延迟的互联网服务。自 2019 年起,Starlink 已部署数千颗卫星,旨在缩小全球数字鸿沟,推动互联网普及。该项目还为军事、航空等行业提供通信支持,带来广泛经济效益。
2D Orbit Map
3D Orbit Map
Orbit Altitude Analysis Chart
Orbit Inclination Analysis Chart
Orbit Comprehensive Analysis Chart
View Comprehensive Chart